Regional Weather Roundup
Issued by NWS

Home | Current Version | Previous Version | Graphics & Text | Print | Product List | Glossary Off
Versions: 1 2 3 4 5 6 7 8 9 10 11 12 13 14 15 16 17 18 19 20 21 22 23 24 25 26 27 28 29 30 31 32 33 34 35 36 37 38 39 40 41 42 43 44 45 46 47 48 49 50

000
ASUS43 KTOP 050308
RWRKS

WEATHER ROUNDUP FOR KANSAS
NATIONAL WEATHER SERVICE GOODLAND KS
1000 PM CDT TUE AUG 04 2015

NOTE:  "FAIR" INDICATES FEW OR NO CLOUDS BELOW 12,000 FEET WITH NO
SIGNIFICANT WEATHER AND/OR OBSTRUCTIONS TO VISIBILITY.

KSZ001>006-013>018-027>032-041>047-050400-
NORTHWEST KANSAS

CITY           SKY/WX    TMP DP  RH WIND       PRES   REMARKS
GOODLAND       PTCLDY    65  61  87 SE8       30.02R
HAYS           CLOUDY    73  61  64 E9        29.94S
HILL CITY      CLOUDY    67  66  97 SE5       29.96S
RUSSELL        CLOUDY    71  65  81 E10       29.92F
$$

KSZ061>065-074>080-084>089-050400-
SOUTHWEST KANSAS

CITY           SKY/WX    TMP DP  RH WIND       PRES   REMARKS
DODGE CITY     MOCLDY    74  68  81 S12G17    29.97R
ELKHART          N/A     75  65  71 SE7         N/A
GARDEN CITY    CLEAR     73  62  68 E13       29.97R
GREAT BEND     CLOUDY    75  70  83 SE10      29.93F
LIBERAL        MOCLDY    82  64  54 E8        29.95R
PRATT          MOCLDY    77  68  73 SE8       29.96S
$$

KSZ066>073-081>083-090>101-050400-
SOUTHEAST KANSAS

CITY           SKY/WX    TMP DP  RH WIND       PRES   REMARKS
CHANUTE        CLOUDY    72  69  90 E7        29.99R
COFFEYVILLE    CLOUDY    75  72  90 NE6       29.98R
HUTCHINSON     MOCLDY    76  69  79 SE12      29.95S
MEDICINE LODGE   N/A     77  72  84 E9        29.93S
NEWTON         PTCLDY    73  64  73 SE9       29.99S
PARSONS        CLOUDY    74  71  91 CALM      29.99R
WICHITA INTL   PTCLDY    77  70  79 SE7       29.96S
WICHITA JABRA  CLEAR     75  70  84 SE6       29.96F
WICHITA MCCONL CLEAR     76  69  77 E7        29.97S
$$

KSZ007>012-019>026-033>040-048>060-102>105-050400-
NORTHEAST KANSAS

CITY           SKY/WX    TMP DP  RH WIND       PRES   REMARKS
CONCORDIA      CLOUDY    66  64  93 S5        29.95R
EMPORIA        MOCLDY    71  66  84 SE9       29.97R
LAWRENCE       MOCLDY    72  70  93 SW6       29.96R
MANHATTAN      CLOUDY    74  71  91 SE5       29.97R
MARYSVILLE     CLOUDY    72  70  94 S7        29.95F
OLATHE IND     CLOUDY    71  70  96 S7        29.97R
OLATHE EXE     CLOUDY    70  69  97 S5        29.96R
SALINA         LGT RAIN  73  67  81 NE9       29.97R
TOPEKA BILLARD PTCLDY    71  70  96 CALM      29.96R
TOPEKA FORBES  PTCLDY    71  68  90 S6        29.97R FOG
$$



USA.gov is the U.S. government's official web portal to all federal, state and local government web resources and services.